Powrót do katalogu

YAOGAN-36 02A

AktywnyMilitariaVLEO
NORAD 54042·PAYLOAD·🇨🇳 China

Wystrzelony Oct 14, 2022 z Xichang Satellite Launch Center

Loading…

Następne Przeloty (najbliższe 24 godziny)

TLE

ŚwieżeSource: Space-Track

Epoka: Sep 14, 2026, 12:39 UTC

1 54042U 22133A   26257.52761013  .00007589  00000-0  31321-3 0  9995
2 54042  35.0070 277.9566 0028636 290.7307  69.0340 15.22943381218389

Śledź YAOGAN-36 02A w czasie rzeczywistym z AllMySat

Download on the App Store